Location: Altamira
(10.5079°N, 66.8544°W)
Time: 01:24:13
(UTC+00:00)

CORIOLIS - Pass Details

Date: 04 July 2022
Orbit: 819 x 837 km, 98.7° (Epoch: 17 August)

Event Time Altitude Azimuth Distance (km) Brightness Sun altitude
Rises 09:27:27 0° 44° (NE) 3,361 8.8 -10.4°
Reaches altitude 10° 09:30:52 10° 67° (ENE) 2,432 8.3 -9.6°
Maximum altitude 09:33:49 15° 100° (E) 2,105 7.1 -9.0°
Drops below altitude 10° 09:36:47 10° 134° (SE) 2,439 6.9 -8.3°
Sets 09:40:12 0° 156° (SSE) 3,375 7.3 -7.6°
